This is the latest recevied weather packets stored in our database for station/object 9W2RUT-G. If no packets are shown the sender has not sent any weather packets the latest 10 day(s).
| Time | Temp. | Humidity | Pressure | Rain* | Wind** | Luminosity | Snow |
|---|---|---|---|---|---|---|---|
| 1777625142 | 35° C | 42% | 1010.2 hPa | - | - | - | - |
| 1777624275 | 35° C | 43% | 1010.2 hPa | - | - | - | - |
| 1777624242 | 35° C | 43% | 1010.2 hPa | - | - | - | - |
| 1777623341 | 35° C | 42% | 1009.9 hPa | - | - | - | - |
| 1777622441 | 35° C | 42% | 1009.8 hPa | - | - | - | - |
| 1777621541 | 35° C | 41% | 1010.1 hPa | - | - | - | - |
| 1777620712 | 34.44° C | 42% | 1010.1 hPa | - | - | - | - |
| 1777620640 | 34.44° C | 42% | 1010.1 hPa | - | - | - | - |
| 1777619739 | 34.44° C | 41% | 1010.2 hPa | - | - | - | - |
| 1777618838 | 33.89° C | 41% | 1010.4 hPa | - | - | - | - |
| 1777617937 | 33.89° C | 41% | 1010.8 hPa | - | - | - | - |
| 1777617037 | 33.33° C | 41% | 1011 hPa | - | - | - | - |
| 1777616137 | 33.33° C | 41% | 1011.3 hPa | - | - | - | - |
| 1777615236 | 32.78° C | 42% | 1011.8 hPa | - | - | - | - |
| 1777614336 | 32.78° C | 41% | 1012.1 hPa | - | - | - | - |
| 1777613435 | 32.78° C | 42% | 1012.4 hPa | - | - | - | - |
| 1777612535 | 32.22° C | 42% | 1013 hPa | - | - | - | - |
| 1777611634 | 32.22° C | 42% | 1013.5 hPa | - | - | - | - |
| 1777610734 | 31.67° C | 43% | 1013.9 hPa | - | - | - | - |
| 1777609833 | 31.67° C | 43% | 1014.1 hPa | - | - | - | - |
| 1777608932 | 31.11° C | 43% | 1014 hPa | - | - | - | - |
| 1777608084 | 29.44° C | 46% | 1014.1 hPa | - | - | - | - |
| 1777608032 | 29.44° C | 46% | 1014.1 hPa | - | - | - | - |
| 1777607148 | 31.11° C | 42% | 1014.5 hPa | - | - | - | - |
| 1777606249 | 30.56° C | 43% | 1014.5 hPa | - | - | - | - |
* Rain since midnight (hover to see other rain measurements)
** Current wind speed in m/s (hover to see current wind gust speed)